OBJECT B, 56744

Orbit data source: Space-Track

You're viewing an Uncataloged Satellite

Recently launched and/or uncataloged satellites may have evolving metadata. Metadata may include but not limited to: Owner, Maufacturer, Bus, Motor, and Mission.

OBJECT B, 56744 is a satellite owned by KASI (KR) in SSO that was launched on Thu, 25 May 2023 UTC via an NURI launch vehicle from the Naro Space Center, South Korea (NSC). Unknown objects in Earth's orbit typically refer to objects detected orbiting the Earth but have not yet been identified or cataloged. These objects could be anything from previously untracked satellites, spent rocket stages, debris from satellite collisions, or even natural meteoroids temporarily captured by Earth's gravity.

Loading next visibility...
Identifier
56744, 2023-072B
Orbit
SSO
Last TLE update
4 hours ago
Origin
Manufacturer
KASI
Mission
Operational Civil Ast/Sci
Bus & Motor
CUBESAT 6U, Unknown motor
Mass
10 kg wet, 10 kg dry
Launch date (UTC)
2023-05-25 (2 years ago)
Launch vehicle
NURI
Launch site
Naro Space Center, South Korea (NSC)
Object type
Unknown
Shape & HBR
Box + 2 Pan, 0.7 m
Radar Cross Section
0.054 m², Medium (>0.1 m² and < 1m²)

Expand to show TLE details & history

TLE from 4 hours ago
0 OBJECT B
1 56744U 23072B   25127.52340263  .00014750  00000-0  56278-3 0  9990
2 56744  97.5482 320.2217 0006100 357.5788   2.5420 15.26753740107933
Epoch: 2025-05-07T12:33Z
Definitive object data (Epoch: 2025-05-07T12:33:41.987Z)
Latitude
0.00001°
Longitude
-93.81027°
Altitude
484.436 km
Speed
7.625 km/s
True Right ascension
21h 20m 53s
True Declination
0° 00' 00"
Sunlit
Object was in daylight at TLE epoch
Visualization TLE readout
Latitude
-59.39938°
Longitude
-80.74786°
Altitude
506.194 km
Speed
7.611 km/s
Apparent Right ascension
16h 06m 55s
Apparent Declination
-71° 35' 04"
Sunlit
Object is in daylight
Visualization observer readout
Local Sidereal Time
01:03:46
Azimuth
201.115° SSW
Elevation
-51.056°
Doppler factor
1
Orbital elements
Apogee altitude
486.672 km
Perigee altitude
478.302 km
Semi-major axis
6,860.624 km
Eccentricity
0.00061
Inclination
97.5482°
RAAN
320.2217°
Arg. of periapsis
357.5788°
True anomaly
2.5451°
Mean anomaly
2.542°
Eccentric anomaly
2.54355°
Mean motion
3.81942 °/min
BSTAR
0.00056278
Orbital period
94.26 mins
Loading maneuver chart data...
Loading SW <> Apogee altitude chart data...
Loading historical data...
Loading historical data...
Loading historical data...
Loading historical data...
Loading historical data...
Loading historical data...
Loading historical data...

OBJECT B Visibility forecast

Observer location: undefined°, undefined°

Span
Click to sort rows by Start time (UTC) header in descending order
Start Az.
Max El. time (UTC)
Max El. Az.
Max El.
End time (UTC)
End Az.
6 mins2025-05-08 01:42:04.821Z11.477° NNE2025-05-08 01:45:04.821Z0.502° NNE44.46°2025-05-08 01:48:04.821Z194.122° SSW
4 mins2025-05-08 12:19:04.821Z109.726° ESE2025-05-08 12:20:04.821Z80.799° E26.817°2025-05-08 12:23:04.821Z12.478° NNE
|